Location: Albany
(35.0170°S, 117.8920°E)
Time: 21:22:34
(UTC+08:00)

A-11 Canister half - Pass Details

Date: 26 January 2021
Orbit: 1525 x 1684 km, 47.3° (Epoch: 03 March)

Event Time Altitude Azimuth Distance (km) Brightness Sun altitude
Rises 07:12:27 0° 238° (WSW) 4,897 11.2 20.9°
Reaches altitude 10° 07:15:45 10° 234° (SW) 3,889 10.8 21.6°
Maximum altitude 07:25:30 58° 156° (SSE) 1,832 10.1 23.6°
Drops below altitude 10° 07:34:52 10° 78° (ENE) 3,750 12.5 25.5°
Sets 07:37:58 0° 73° (ENE) 4,713 12.6 26.1°
